Miscellaneous Local Product
Issued by NWS North Platte, NE

Home | Current Version | Previous Version | Graphics & Text | Print | Product List | Glossary On
Versions: 1 2 3 4 5 6 7 8 9 10 11 12 13 14 15 16 17 18 19 20 21 22 23 24 25 26 27 28 29 30 31 32 33 34 35 36 37 38 39 40 41 42 43 44 45 46 47 48 49 50
548
AXUS43 KLBF 200110
MISLBF


WESTERN AND NORTH CENTRAL NEBRASKA HOURLY WEATHER ROUNDUP
NATIONAL WEATHER SERVICE NORTH PLATTE NE
700 PM CST THU JAN 19 2017

NOTE: "FAIR" INDICATES FEW OR NO CLOUDS BELOW 12,000 FEET WITH NO
SIGNIFICANT WEATHER AND/OR OBSTRUCTIONS TO VISIBILITY.

NOTE: STATIONS NOT REPORTING VARIABLES SUCH AS SKY/WEATHER OR
PRESSURE ARE PROVIDED BY RAWS AND APRS NETWORKS AND ARE NOT UNDER
NATIONAL WEATHER SERVICE QUALITY CONTROL.

...OBSERVATIONS IN AND NEAR THE EASTERN PANHANDLE OF NEBRASKA...

CITY           SKY/WX    TMP DP  RH WIND       PRES   REMARKS
PINE RIDGE     CLOUDY    30  26  85 SW7       29.47S WCI  23
CHADRON        CLOUDY    32  25  75 W3        29.49S
ALLIANCE       CLOUDY    37  25  61 W3        29.49R
SIDNEY         CLEAR     32  24  72 SW12      29.52R WCI  23
CRESCENT LAKE    N/A     38  28  68 S3          N/A
$$

...OBSERVATIONS IN NORTHERN NEBRASKA AND FAR SOUTHERN SOUTH DAKOTA...

CITY           SKY/WX    TMP DP  RH WIND       PRES   REMARKS
WINNER         FAIR      39  35  86 S15       29.48F WCI  31
VALENTINE      CLEAR     38  31  76 S10       29.48S WCI  31
THEDFORD       CLOUDY    37  36  96 S5        29.53S FOG     WCI  33
AINSWORTH      CLOUDY    37  37  99 S14       29.50S WCI  28
O`NEILL        CLOUDY    41  40  98 S9        29.55F FOG
ORD            CLOUDY    40  38  93 S8        29.56F WCI  34
BROKEN BOW     CLOUDY    40  38  93 S8        29.55S WCI  34
VALENTINE NWR    N/A     36  32  86 S12         N/A  WCI  28
BUTTE            N/A     40  38  93 S9G17       N/A  WCI  34
HALSEY           N/A     37  37 100 S9G16       N/A  WCI  30
SARGENT          N/A     40  30  67 CALM        N/A
CHAMBERS         N/A     40  39  98 S3          N/A
EWING            N/A     39  38  97 S5          N/A
$$

...OBSERVATIONS IN SOUTHWEST NEBRASKA AND FAR NORTHEAST COLORADO...

CITY           SKY/WX    TMP DP  RH WIND       PRES   REMARKS
HOLYOKE        FAIR      34  28  80 S9        29.52S WCI  26
IMPERIAL       FOG       34  34 100 SE10      29.54S VSB 1/4 WCI  26
OGALLALA       MOCLDY    35  33  93 SE3       29.52S FOG
NORTH PLATTE   CLOUDY    38  36  92 S9        29.55S WCI  31
MCCOOK         PTCLDY    36  35  96 CALM      29.55F FOG
LEXINGTON      CLOUDY    39  37  94 S6        29.56F FOG     WCI  35
STAPLETON        N/A     36  35  96 CALM        N/A
GOTHENBURG       N/A     41  37  84 CALM        N/A
CALLAWAY         N/A     38  37  97 SW9         N/A  WCI  31
$$

...OBSERVATIONS IN CENTRAL LINCOLN COUNTY AREA...

CITY           SKY/WX    TMP DP  RH WIND       PRES   REMARKS
N.P. AIRPORT   CLOUDY    38  36  92 S9        29.55S WCI  31
N.P. DOWNTOWN    N/A     37  36  96 SE3         N/A
N.P. SOUTHEAST   N/A     36  35  95 S5          N/A  WCI  32
N.P. HILLCREST   N/A     37  37 100 S9          N/A  WCI  30
$$

...SOME OBSERVATIONS FROM AROUND THE REGION...

CITY           SKY/WX    TMP DP  RH WIND       PRES   REMARKS
LARAMIE        CLOUDY    20  16  84 E7        29.59S WCI  11
CHEYENNE       CLOUDY    36  17  46 W7        29.55R WCI  30
DENVER         CLOUDY    35  22  58 SE10      29.52R WCI  27
AKRON          CLOUDY    39  23  52 S5        29.51S
SCOTTSBLUFF    CLEAR     40  25  55 W7        29.51R
RAPID CITY     CLOUDY    31  22  69 NW5       29.46R WCI  26
BISMARCK       CLOUDY    15  12  88 SE5       29.50R WCI   8
PIERRE         CLOUDY    18  15  88 N3        29.48S
SIOUX FALLS    FOG       37  37 100 SE10      29.62F VSB 1/2 WCI  30
OMAHA          FOG       42  38  85 CALM      29.66S VSB 1/2
GRAND ISLAND   CLOUDY    39  39 100 S5        29.61F FOG
KANSAS CITY    CLOUDY    47  43  86 CALM      29.63F
WICHITA        CLOUDY    48  44  86 E8        29.59S
OKLAHOMA CITY  CLEAR     51  46  83 S12       29.55S
DALLAS         PTCLDY    60  53  77 S15       29.61R
AMARILLO       CLOUDY    48  28  46 E8        29.56S
DODGE CITY     CLOUDY    41  37  86 SW5       29.57R
HAYS           CLOUDY    43  43 100 E7        29.59S FOG
GOODLAND       CLOUDY    35  35 100 SE10      29.55R FOG     WCI  27
$$




USA.gov is the U.S. government's official web portal to all federal, state and local government web resources and services.